Location: Seattle
(47.6064°N, 122.3308°W)
Time: 00:00:23
(UTC-08:00)

Tiros 1 - Pass Details

Date: 27 November 2020
Orbit: 630 x 663 km, 48.4° (Epoch: 28 January)

Event Time Altitude Azimuth Distance (km) Brightness Sun altitude
Rises 17:48:59 0° 260° (W) 2,989 12.5 -14.3°
Reaches altitude 10° 17:51:20 10° 260° (W) 2,075 11.2 -14.6°
Maximum altitude 17:56:09 87° 348° (NNW) 663 7.1 -15.4°
Enters shadow 17:58:43 27° 79° (E) 1,245 8.0 -15.8°
Drops below altitude 10° 18:00:56 10° 80° (E) 2,062 - -16.2°
Sets 18:03:16 0° 81° (E) 2,968 - -16.6°
